Tracking 30101 objects as of 14-Dec-2024
HD Live streaming from Space Station
objects crossing your sky now

STARLINK-4659

Track STARLINK-4659 now!
10-day predictions
STARLINK-4659 is classified as:


NORAD ID: 54841
Int'l Code: 2022-177X
Perigee: 565.3 km
Apogee: 567.2 km
Inclination: 43.0 °
Period: 95.8 minutes
Semi major axis: 6937 km
RCS: Unknown
Launch date: December 28, 2022
Source: United States (US)
Launch site: AIR FORCE EASTERN TEST RANGE (AFETR)
Your satellite tracking list
Your tracking list is empty




NASA's NSSDC Master Catalog

Two Line Element Set (TLE):
1 54841U 22177X   24348.54095322  .00000908  00000-0  82304-4 0  9990
2 54841  43.0055  64.5062 0001355 270.0654  90.0033 15.02536138109090
Source of the keplerian elements: AFSPC